Location: Unspecified
(0.0000°N, 0.0000°E)
Time: 00:54:18
(UTC+00:00)

Explorer 11/Cluster Stage 4 - Visible Passes

Search period start: 26 May 2019 00:00
Search period end: 05 June 2019 00:00
Orbit: 467 x 1260 km, 28.8° (Epoch: 25 May)

Date Brightness Start Highest point End Pass type
(mag) Time Alt. Az. Time Alt. Az. Time Alt. Az.
26 May 8.4 19:32:49 10° SSW 19:39:01 28° SSE 19:39:01 28° SSE visible
26 May 9.8 21:20:58 10° SW 21:21:13 11° SW 21:21:13 11° SW visible
27 May 8.2 19:21:51 10° SSW 19:28:51 32° SSE 19:29:53 31° SE visible
27 May 9.4 21:10:11 10° WSW 21:12:06 19° WSW 21:12:06 19° WSW visible
28 May 8.0 19:10:56 10° SW 19:18:08 37° SSE 19:20:58 29° ESE visible
28 May 8.8 20:59:27 10° WSW 21:03:12 30° WSW 21:03:12 30° WSW visible
29 May 7.9 19:00:06 10° SW 19:07:24 43° SSE 19:12:17 22° E visible
29 May 8.2 20:48:48 10° WSW 20:54:32 48° W 20:54:32 48° W visible
30 May 7.7 18:49:18 10° SW 18:56:38 49° SSE 19:03:48 13° ENE visible
30 May 7.9 20:38:12 10° WSW 20:46:04 58° NNW 20:46:04 58° NNW visible
31 May 7.5 18:38:34 10° SW 18:45:52 57° SSE 18:53:56 10° ENE visible
31 May 8.2 20:27:41 10° WSW 20:35:24 50° NNW 20:37:47 39° NNE visible
01 Jun 7.4 18:27:54 10° SW 18:35:06 66° SSE 18:43:15 10° ENE visible
01 Jun 8.4 20:17:15 10° W 20:24:40 43° NNW 20:29:37 22° NNE visible
01 Jun 9.9 22:10:24 10° NW 22:11:53 13° NW 22:11:53 13° NW visible
02 Jun 7.4 18:17:17 10° SW 18:24:21 77° SSE 18:32:30 10° ENE visible
02 Jun 8.7 20:06:54 10° W 20:13:57 36° NNW 20:21:23 10° NE visible
02 Jun 9.8 22:00:38 10° NW 22:03:41 13° NNW 22:03:41 13° NNW visible
03 Jun 7.8 05:22:45 10° NW 05:27:16 32° NNE 05:31:03 10° E visible
03 Jun 9.0 19:56:39 10° W 20:03:16 31° NNW 20:10:22 10° NNE visible
03 Jun 9.9 21:51:11 10° NW 21:53:45 12° NNW 21:55:17 11° N visible
04 Jun 9.4 03:25:11 10° N 03:27:27 12° NNE 03:29:35 10° NE visible
04 Jun 7.4 05:11:49 10° NW 05:16:50 43° NNE 05:20:56 10° E visible
04 Jun 9.2 19:46:29 10° W 19:52:38 27° NNW 19:59:16 10° NNE visible
04 Jun 10.0 21:42:48 10° NNW 21:43:17 10° NNW 21:43:48 10° NNW visible
